Location: Hackbridge
(51.3833°N, 0.1500°W)
Time: 04:40:38
(UTC+00:00)

STARLINK-39 - Pass Details

Date: 13 October 2019
Orbit: 548 x 551 km, 53.0° (Epoch: 15 November)

Event Time Altitude Azimuth Distance (km) Brightness Sun altitude
Rises 18:40:19 0° 227° (SW) 2,708 7.8 -14.5°
Reaches altitude 10° 18:42:36 10° 221° (SW) 1,818 6.7 -14.8°
Maximum altitude 18:46:33 45° 149° (SSE) 756 4.0 -15.4°
Enters shadow 18:48:05 30° 97° (E) 996 4.3 -15.7°
